Content
SEND FEEDBACK

Daily
Averages
Monthly
Summary
United States of America

MALDEN, MISSOURI


Home > North America > United States > Missouri
Elevation: 295 feet     Latitude: 36 36N     Longitude: 089 59W

WEATHER
 
SELECT A DAY
Number of Records: 211,148;   Date Range: 1/1/95 - 10/30/14
 
SHARE

PRINT THIS DATA

[ ← Previous Day ]
WEATHER ALMANAC - FEBRUARY 12, 2014
[ Next Day → ]
[ °C ]   °F
Weather ElementAverageHighLow
Temperature25.8 °F39 °F (2:53 pm)12.9 °F (4:53 am)
Dewpoint12.6 °F19.9 °F (7:53 pm)3.9 °F (1:53 am)
Humidity58.9 %78 % (11:53 pm)38 % (2:53 pm)
Barometer30.14 in30.29 in (1:53 am)30.02 in (11:53 pm)
Wind Speed4.3 mph8.1 mph (5:53 am)
Weather ElementAverage
Visibility9.7 mi
Wind DirectionE (87.4 °)

Weather ElementTotal
Precipitation---
Heating Degree Days39.1 (Base 65)
Averaged from 23 records on February 12, 2014
WEATHER CONDITIONS BREAKOUT
WIND DIRECTION BREAKOUT
WEATHER BY HOUR - FEBRUARY 12, 2014
[ °C ]   °F
Local TimeTemperatureDewpointHumidityBarometerVisibilityWind DirectionWind SpeedGust SpeedPrecipitationEventsConditions
1:53 AM16.0 °F3.9 °F59 %30.29 in10.0 miNNE (20°)5.8 mphClear
2:53 AM14.0 °F5.0 °F67 %30.28 in10.0 miNorth (10°)6.9 mphClear
3:53 AM14.0 °F3.9 °F64 %30.26 in10.0 miNorth (360°)6.9 mphClear
4:53 AM12.9 °F5.0 °F71 %30.24 in10.0 miNorth (350°)4.6 mphClear
5:53 AM15.1 °F5.0 °F64 %30.23 in10.0 miNorth (360°)8.1 mphClear
6:53 AM14.0 °F5.0 °F67 %30.25 in10.0 miNorth (360°)6.9 mphClear
7:53 AM17.1 °F5.0 °F59 %30.24 in10.0 miNNE (20°)6.9 mphClear
8:53 AM19.9 °F8.1 °F60 %30.23 in10.0 miNE (40°)6.9 mphClear
9:53 AM23.0 °F10.0 °F58 %30.22 in10.0 miNNE (30°)5.8 mphClear
10:53 AM28.0 °F12.9 °F53 %30.20 in10.0 miNE (50°)4.6 mphClear
11:53 AM34.0 °F14.0 °F44 %30.17 in10.0 miNorth (10°)4.6 mphClear
12:53 PM36.0 °F16.0 °F44 %30.12 in10.0 miENE (70°)6.9 mphClear
1:53 PM37.9 °F15.1 °F39 %30.07 in10.0 miEast (90°)6.9 mphClear
2:53 PM39.0 °F15.1 °F38 %30.04 in10.0 miEast (80°)5.8 mphClear
3:53 PM39.0 °F17.1 °F41 %30.04 in10.0 miEast (80°)5.8 mphClear
4:53 PM39.0 °F18.0 °F43 %30.04 in10.0 miEast (80°)4.6 mphClear
5:53 PM34.0 °F19.0 °F54 %30.04 in10.0 miCalmClear
6:53 PM32.0 °F19.0 °F59 %30.05 in10.0 miCalmClear
7:53 PM28.0 °F19.9 °F72 %30.06 in9.0 miCalmClear
8:53 PM27.0 °F19.0 °F72 %30.06 in8.0 miCalmClear
9:53 PM26.1 °F18.0 °F71 %30.05 in10.0 miCalmClear
10:53 PM24.1 °F18.0 °F77 %30.04 in8.0 miCalmClear
11:53 PM23.0 °F17.1 °F78 %30.02 in8.0 miCalmClear
Hourly data recorded from KPOF, located miles away from Malden, Missouri







STORIES FROM OUR PARTNERS